Weather History for YBCS - June, 2013

Change the Weather History Date:

Thursday, June 13, 2013

  Actual Average Record
Temperature  
Mean Temperature 77 °F -  
Max Temperature 83 °F 78 °F 83 °F (2013)
Min Temperature 71 °F 63 °F 53 °F (2012)
Cooling Degree Days 12    
Growing Degree Days 27 (Base 50)    
Moisture  
Dew Point 67 °F    
Average Humidity 72    
Maximum Humidity 88    
Minimum Humidity 42    
Precipitation  
Precipitation 0.00 in 0.05 in - ()
Sea Level Pressure  
Sea Level Pressure 29.85 in    
Wind  
Wind Speed 8 mph ()    
Max Wind Speed 10 mph    
Max Gust Speed -    
Visibility 7.3 miles    
Events      
Averages and records for this station are not official NWS values.
T = Trace of Precipitation, MM = Missing Value Source: Averaged Metar Reports

Daily Weather History Graph

Daily Weather History Graph

Search for Another Location

Airport or City:

Trip Planner

Search our weather history database for the weather conditions in past years. The results will help you decide how hot, cold, wet, or windy it might be!

Date:

Astronomy

Jun. 13, 2013 Rise Set
Actual Time 6:43 AM AEST 5:50 PM AEST
Civil Twilight 6:19 AM AEST 6:14 PM AEST
Nautical Twilight 5:52 AM AEST 6:41 PM AEST
Astronomical Twilight 5:25 AM AEST 7:08 PM AEST
Moon 9:49 AM AEST (6/13) 9:40 PM AEST (6/13)
Length of Visible Light 11h 54m
Length of Day
11h 07m
Waxing Crescent, 17% of the Moon is Illuminated
Jun 13
Waxing Crescent
Jun 17
First Quarter
Jun 23
Full
Jun 30
Last Quarter
Jul 8
New

Hourly Weather History & Observations

Time (AEST) Temp. Heat Index Dew Point Humidity Pressure Visibility Wind Dir Wind Speed Gust Speed Precip Events Conditions
12:00 AM 73 °F - 68 °F 80% 29.88 in - South 10.4 mph - -  
12:00 AM 73.4 °F - 68.0 °F 83% 29.86 in 6.2 mi South 10.4 mph - N/A   Mostly Cloudy
12:30 AM 73.4 °F - 68.0 °F 83% 29.86 in 6.2 mi South 10.4 mph - N/A   Overcast
1:00 AM 73 °F - 69 °F 82% 29.87 in - South 9.2 mph - -  
1:00 AM 73.4 °F - 68.0 °F 83% 29.86 in 6.2 mi South 9.2 mph - N/A   Overcast
1:30 AM 73.4 °F - 68.0 °F 83% 29.86 in 6.2 mi SSE 6.9 mph - N/A   Overcast
2:00 AM 73.4 °F - 68.0 °F 83% 29.83 in 6.2 mi South 6.9 mph - N/A   Overcast
2:30 AM 73.4 °F - 68.0 °F 83% 29.83 in 6.2 mi South 6.9 mph - N/A   Mostly Cloudy
3:00 AM 72 °F - 68 °F 85% 29.84 in - South 8.1 mph - -   Overcast
3:00 AM 73.4 °F - 68.0 °F 83% 29.83 in 6.2 mi South 8.1 mph - N/A   Mostly Cloudy
3:30 AM 73.4 °F - 68.0 °F 83% 29.83 in 6.2 mi South 6.9 mph - N/A   Mostly Cloudy
4:00 AM 73 °F - 67 °F 78% 29.84 in - South 9.2 mph - -  
4:00 AM 73.4 °F - 68.0 °F 83% 29.83 in 6.2 mi South 9.2 mph - N/A   Overcast
4:30 AM 73.4 °F - 68.0 °F 83% 29.83 in 6.2 mi South 5.8 mph - N/A   Overcast
5:00 AM 73.4 °F - 68.0 °F 83% 29.83 in 6.2 mi SSE 8.1 mph - N/A   Mostly Cloudy
5:30 AM 71.6 °F - 68.0 °F 88% 29.83 in 6.2 mi SE 8.1 mph - N/A   Mostly Cloudy
6:00 AM 73 °F - 68 °F 78% 29.85 in 16 mi South 9.2 mph - -   Partly Cloudy
6:00 AM 73.4 °F - 68.0 °F 83% 29.83 in 6.2 mi South 9.2 mph - N/A   Scattered Clouds
6:30 AM 73.4 °F - 68.0 °F 83% 29.86 in 6.2 mi South 6.9 mph - N/A   Partly Cloudy
7:00 AM 72 °F - 67 °F 81% 29.87 in - South 5.8 mph - -  
7:00 AM 73.4 °F - 68.0 °F 83% 29.86 in 6.2 mi South 5.8 mph - N/A   Scattered Clouds
7:30 AM 73.4 °F - 68.0 °F 83% 29.86 in 6.2 mi South 3.5 mph - N/A   Partly Cloudy
8:00 AM 75.2 °F - 68.0 °F 78% 29.89 in 6.2 mi South 6.9 mph - N/A   Partly Cloudy
8:30 AM 77.0 °F - 68.0 °F 74% 29.89 in 6.2 mi South 9.2 mph - N/A   Scattered Clouds
9:00 AM 76 °F - 68 °F 70% 29.90 in 19 mi South 6.9 mph - -   Partly Cloudy
9:00 AM 77.0 °F - 68.0 °F 74% 29.89 in 6.2 mi South 6.9 mph - N/A   Mostly Cloudy
9:30 AM 78.8 °F - 68.0 °F 69% 29.89 in 6.2 mi South 8.1 mph - N/A   Scattered Clouds
10:00 AM 80 °F - 68 °F 58% 29.90 in - SSE 9.2 mph - -  
10:00 AM 78.8 °F - 68.0 °F 69% 29.89 in 6.2 mi SSE 9.2 mph - N/A   Partly Cloudy
10:30 AM 80.6 °F 83.2 °F 68.0 °F 65% 29.89 in 6.2 mi SSE 10.4 mph - N/A   Partly Cloudy
11:00 AM 80.6 °F 83.2 °F 68.0 °F 65% 29.89 in 6.2 mi SSE 9.2 mph - N/A   Partly Cloudy
11:30 AM 80.6 °F 82.7 °F 66.2 °F 61% 29.86 in 6.2 mi SE 9.2 mph - N/A   Partly Cloudy
12:00 PM 82 °F - 65 °F 47% 29.86 in 19 mi SE 10.4 mph - -   Partly Cloudy
12:00 PM 82.4 °F 83.9 °F 64.4 °F 54% 29.86 in 6.2 mi SE 10.4 mph - N/A   Partly Cloudy
12:30 PM 82.4 °F 83.9 °F 64.4 °F 54% 29.83 in 6.2 mi SSE 10.4 mph - N/A   Partly Cloudy
1:00 PM 83 °F - 64 °F 42% 29.84 in - SE 10.4 mph - -  
1:00 PM 82.4 °F 83.9 °F 64.4 °F 54% 29.83 in 6.2 mi SE 10.4 mph - N/A   Partly Cloudy
1:30 PM 82.4 °F 83.9 °F 64.4 °F 54% 29.80 in 6.2 mi East 8.1 mph - N/A   Partly Cloudy
2:00 PM 82.4 °F 84.6 °F 66.2 °F 58% 29.80 in 6.2 mi ENE 10.4 mph - N/A   Partly Cloudy
2:30 PM 82.4 °F 83.9 °F 64.4 °F 54% 29.80 in 6.2 mi East 10.4 mph - N/A   Partly Cloudy
3:00 PM 82 °F - 66 °F 48% 29.80 in 19 mi ENE 10.4 mph - -   Partly Cloudy
3:00 PM 82.4 °F 84.6 °F 66.2 °F 58% 29.80 in 6.2 mi ENE 10.4 mph - N/A   Partly Cloudy
3:30 PM 82.4 °F 84.6 °F 66.2 °F 58% 29.80 in 6.2 mi ENE 9.2 mph - N/A   Partly Cloudy
4:00 PM 82 °F - 65 °F 48% 29.80 in - ENE 8.1 mph - -  
4:00 PM 82.4 °F 84.6 °F 66.2 °F 58% 29.80 in 6.2 mi ENE 8.1 mph - N/A   Partly Cloudy
4:30 PM 80.6 °F 82.7 °F 66.2 °F 61% 29.80 in 6.2 mi ENE 10.4 mph - N/A   Partly Cloudy
5:00 PM 78.8 °F - 66.2 °F 65% 29.80 in 6.2 mi SSE 10.4 mph - N/A   Partly Cloudy
5:30 PM 77.0 °F - 66.2 °F 69% 29.80 in 6.2 mi South 5.8 mph - N/A   Partly Cloudy
6:00 PM 76 °F - 66 °F 64% 29.83 in - South 5.8 mph - -  
6:00 PM 75.2 °F - 66.2 °F 73% 29.83 in 6.2 mi South 5.8 mph - N/A   Scattered Clouds
7:00 PM 75 °F - 66 °F 66% 29.85 in - South 8.1 mph - -  
7:00 PM 75.2 °F - 66.2 °F 73% 29.83 in 6.2 mi South 8.1 mph - N/A   Partly Cloudy
7:30 PM 75.2 °F - 66.2 °F 73% 29.83 in 6.2 mi South 10.4 mph - N/A   Partly Cloudy
8:00 PM 73.4 °F - 68.0 °F 83% 29.86 in - SSE 9.2 mph - N/A   Clear
8:30 PM 73.4 °F - 68.0 °F 83% 29.86 in - SE 8.1 mph - N/A   Clear
9:00 PM 73 °F - 67 °F 77% 29.86 in - SSE 6.9 mph - -  
9:00 PM 73.4 °F - 68.0 °F 83% 29.86 in - SSE 6.9 mph - N/A   Clear
9:30 PM 73.4 °F - 68.0 °F 83% 29.86 in - South 6.9 mph - N/A   Clear
10:00 PM 73 °F - 67 °F 76% 29.88 in - South 8.1 mph - -  
10:00 PM 73.4 °F - 68.0 °F 83% 29.86 in - South 8.1 mph - N/A   Clear
10:30 PM 71.6 °F - 66.2 °F 83% 29.86 in - SSE 5.8 mph - N/A   Clear
11:00 PM 71.6 °F - 66.2 °F 83% 29.86 in - South 5.8 mph - N/A   Clear
11:30 PM 71.6 °F - 68.0 °F 88% 29.86 in - North 3.5 mph - N/A   Clear